Flag for Canada Weather past 2 weeks in Kuujjuaq, Quebec, Canada

Now
7 °F

Light snow. Broken clouds.


Feels Like: -11 °F
Forecast: -20 / 10 °F
Wind: 15 mph from Northwest

Location: Kuujjuaq

Current Time: Mar 2, 2015 at 11:49:50 AM

Latest Report: Mar 2, 2015 at 11:00 AM


Visibility: 15 mi

Pressure: 29.58 "Hg

Humidity: 66%

Dew point: -2 °F

Location of KuujjuaqLocation

Historic Weather in Kuujjuaq — Graph

°F

Kuujjuaq temperature yesterday

Maximum temperature yesterday: 10 °F (at 4:00 PM)
Minimum temperature yesterday: -26 °F (at 12:00 AM)
Average temperature yesterday: -5 °F

Past Weeks' High & Low Weather Summary

 TemperatureHumidityPressure
High12 °F (Mar 2, 10:00 AM)85% (Mar 1, 9:00 PM)30.30 "Hg (Mar 1, 9:00 PM)
Low-35 °F (Feb 16, 6:00 AM)47% (Feb 27, 3:00 PM)29.55 "Hg (Mar 2, 7:00 AM)
Average-18 °F67%29.94 "Hg
* Reported Feb 15 10:00 AM — Mar 2 10:00 AM, Kuujjuaq, Weather by CustomWeather, © 2015

Note: Actual official high and low records may vary slightly from our data, if they occured in-between our weather recording intervals... More about our weather records

Advertising

Kuujjuaq weather history for previous 24 hours

 ConditionsComfort  
Time TempWeatherWind HumidityBarometerVisibility
10:00 AM
Mon, Mar 2
12 °FLight snow. Broken clouds.8 mph73%29.57 "Hg15 mi
9:00 AM9 °FLight snow. Partly sunny.5 mph78%29.56 "Hg10 mi
8:00 AM7 °FLight snow. Broken clouds.5 mph85%29.56 "Hg6 mi
7:00 AM5 °FLight snow. Partly sunny.3 mph85%29.55 "Hg6 mi
6:00 AM5 °FLight snow. Overcast.5 mph85%29.56 "Hg4 mi
5:00 AM5 °FLight snow. Overcast.5 mph85%29.57 "Hg3 mi
4:00 AM5 °FLight snow. Overcast.5 mph85%29.59 "Hg8 mi
3:00 AM5 °FLight snow. Passing clouds.3 mph85%29.60 "Hg12 mi
2:00 AM5 °FPassing clouds.7 mph85%29.62 "Hg15 mi
1:00 AM7 °FLight snow. Partly cloudy.6 mph78%29.63 "Hg15 mi
12:00 AM7 °FLight snow. Mostly cloudy.7 mph85%29.65 "Hg15 mi
11:00 PM
Sun, Mar 1
7 °FLight snow. Mostly cloudy.7 mph78%29.67 "Hg15 mi
10:00 PM7 °FLight snow. Mostly cloudy.9 mph78%29.68 "Hg15 mi
9:00 PM7 °FLight snow. Mostly cloudy.9 mph85%29.70 "Hg15 mi
8:00 PM9 °FLight snow. Mostly cloudy.9 mph78%29.71 "Hg15 mi
7:00 PM9 °FLight snow. Mostly cloudy.8 mph78%29.72 "Hg15 mi
6:00 PM9 °FPassing clouds.7 mph72%29.74 "Hg15 mi
5:00 PM10 °FBroken clouds.12 mph67%29.75 "Hg15 mi
4:00 PM10 °FBroken clouds.13 mph61%29.77 "Hg15 mi
3:00 PM9 °FBroken clouds.14 mph66%29.79 "Hg15 mi
2:00 PM9 °FLight snow. Broken clouds.15 mph61%29.81 "Hg15 mi
1:00 PM7 °FLight snow. Broken clouds.16 mph61%29.84 "Hg15 mi
12:00 PM3 °FLight snow. Broken clouds.13 mph66%29.87 "Hg15 mi
11:00 AM3 °FLight snow. Broken clouds.15 mph60%29.90 "Hg15 mi
Weather by CustomWeather, © 2015

See weather overviewHow to use our weather pages